Content
SEND FEEDBACK

Daily
Averages
Monthly
Summary
Estonia

LEETSE, ESTONIA


Home > Europe > Estonia
Elevation: 33 feet     Latitude: 59 25N     Longitude: 024 48E

WEATHER
 
SELECT A DAY
Number of Records: 305,848;   Date Range: 7/1/96 - 11/27/14
 
SHARE

PRINT THIS DATA

[ ← Previous Day ]
WEATHER ALMANAC - JANUARY 31, 2013
[ Next Day → ]
[ °C ]   °F
Weather ElementAverageHighLow
Temperature34.2 °F35.6 °F (11:50 am)33.8 °F (12:50 am)
Dewpoint33.8 °F35.6 °F (2:50 pm)32 °F (11:50 pm)
Humidity98.4 %100 % (12:50 am)93 % (11:50 am)
Barometer29.03 in29.07 in (2:00 am)29.00 in (4:50 pm)
Wind Speed7.8 mph13.8 mph (2:50 am)
Weather ElementAverage
Visibility4.2 mi
Wind DirectionS (180 °)

Weather ElementTotal
Precipitation---
Heating Degree Days30.3 (Base 65)
Averaged from 54 records on January 31, 2013
WEATHER CONDITIONS BREAKOUT
WIND DIRECTION BREAKOUT
WEATHER BY HOUR - JANUARY 31, 2013
[ °C ]   °F
Local TimeTemperatureDewpointHumidityBarometerVisibilityWind DirectionWind SpeedGust SpeedPrecipitationEventsConditions
12:50 AM33.8 °F33.8 °F100 %29.06 in1.3 miSouth (190°)10.4 mphOvercast
1:20 AM33.8 °F33.8 °F100 %29.06 in0.9 miSouth (190°)11.5 mphOvercast
1:50 AM33.8 °F33.8 °F100 %29.06 in1.1 miSouth (190°)9.2 mphOvercast
2:00 AM34.0 °F33.0 °F97 %29.07 in1.0 miSouth (190°)8.9 mphMist
2:20 AM33.8 °F33.8 °F100 %29.06 in0.8 miSouth (190°)12.7 mphOvercast
2:50 AM33.8 °F33.8 °F100 %29.03 inSouth (170°)13.8 mphOvercast
3:20 AM33.8 °F33.8 °F100 %29.06 inSSW (210°)9.2 mphOvercast
3:50 AM33.8 °F33.8 °F100 %29.06 in0.8 miSouth (190°)8.1 mphOvercast
4:20 AM33.8 °F33.8 °F100 %29.06 in1.6 miSouth (190°)9.2 mphOvercast
4:50 AM33.8 °F33.8 °F100 %29.06 in1.3 miSouth (190°)9.2 mphOvercast
5:00 AM34.0 °F34.0 °F98 %29.06 in5.0 miSouth (190°)8.9 mphMist
5:20 AM33.8 °F33.8 °F100 %29.03 inSouth (190°)8.1 mphOvercast
5:50 AM33.8 °F33.8 °F100 %29.03 in3.1 miSouth (180°)9.2 mphOvercast
6:20 AM33.8 °F33.8 °F100 %29.03 in5.6 miSouth (190°)9.2 mphOvercast
6:50 AM33.8 °F33.8 °F100 %29.03 in6.2 miSouth (190°)9.2 mphOvercast
7:20 AM33.8 °F33.8 °F100 %29.03 in6.2 miSouth (180°)8.1 mphOvercast
7:50 AM33.8 °F33.8 °F100 %29.03 in3.7 miSouth (170°)8.1 mphOvercast
8:00 AM34.0 °F34.0 °F98 %29.06 in8.0 miSouth (190°)8.9 mphPartly Cloudy
8:20 AM33.8 °F33.8 °F100 %29.03 in1.9 miSouth (180°)8.1 mphOvercast
8:50 AM33.8 °F33.8 °F100 %29.03 in1.5 miSouth (180°)8.1 mphOvercast
9:20 AM33.8 °F33.8 °F100 %29.03 in0.8 miSouth (180°)8.1 mphRainLight Rain
9:50 AM33.8 °F33.8 °F100 %29.03 inSouth (180°)8.1 mphLight Drizzle
10:20 AM33.8 °F33.8 °F100 %29.03 in3.1 miSouth (180°)8.1 mphLight Drizzle
10:50 AM33.8 °F33.8 °F100 %29.03 in3.7 miSouth (180°)5.8 mphRainLight Rain
11:00 AM34.0 °F34.0 °F99 %29.06 in7.0 miSouth (180°)8.9 mphRainLight Rain
11:20 AM33.8 °F33.8 °F100 %29.03 in6.2 miSouth (190°)8.1 mphOvercast
11:50 AM35.6 °F33.8 °F93 %29.03 in5.6 miSouth (180°)6.9 mphOvercast
12:20 PM35.6 °F33.8 °F93 %29.03 in6.2 miSouth (180°)6.9 mphOvercast
12:50 PM35.6 °F33.8 °F93 %29.03 in5.0 miSouth (180°)6.9 mphOvercast
1:20 PM35.6 °F33.8 °F93 %29.03 in5.0 miSouth (170°)8.1 mphOvercast
1:50 PM35.6 °F33.8 °F93 %29.03 in3.7 miSouth (180°)8.1 mphOvercast
2:00 PM35.0 °F35.0 °F98 %29.04 in5.0 miSouth (180°)6.7 mphMist
2:20 PM35.6 °F33.8 °F93 %29.03 in3.1 miSouth (180°)6.9 mphOvercast
2:50 PM35.6 °F35.6 °F100 %29.03 in3.1 miSouth (180°)6.9 mphOvercast
3:20 PM35.6 °F35.6 °F100 %29.03 in3.1 miSouth (170°)6.9 mphOvercast
3:50 PM35.6 °F33.8 °F93 %29.03 in3.1 miSouth (170°)8.1 mphOvercast
4:20 PM35.6 °F33.8 °F93 %29.03 in5.0 miSouth (170°)6.9 mphOvercast
4:50 PM35.6 °F33.8 °F93 %29.00 in3.7 miSSE (160°)6.9 mphOvercast
5:00 PM34.0 °F34.0 °F99 %29.03 in6.0 miSouth (170°)6.7 mphMist
5:20 PM33.8 °F33.8 °F100 %29.00 in3.7 miSouth (170°)6.9 mphLight Drizzle
5:50 PM33.8 °F33.8 °F100 %29.00 in5.6 miSSE (160°)5.8 mphLight Drizzle
6:20 PM33.8 °F33.8 °F100 %29.00 in3.7 miSE (140°)4.6 mphLight Drizzle
6:50 PM33.8 °F33.8 °F100 %29.00 inSSE (150°)5.8 mphLight Drizzle
7:20 PM33.8 °F33.8 °F100 %29.00 in3.1 miSouth (170°)8.1 mphLight Drizzle
7:50 PM33.8 °F33.8 °F100 %29.00 in6.2 miSouth (170°)8.1 mphOvercast
8:00 PM34.0 °F33.0 °F97 %29.02 in7.0 miSouth (180°)6.7 mphRainLight Drizzle
8:20 PM33.8 °F33.8 °F100 %29.00 in6.2 miSouth (180°)6.9 mphOvercast
8:50 PM33.8 °F33.8 °F100 %29.00 in6.2 miSouth (180°)5.8 mphOvercast
9:20 PM33.8 °F33.8 °F100 %29.00 in6.2 miSouth (180°)5.8 mphOvercast
9:50 PM33.8 °F33.8 °F100 %29.00 in6.2 miSouth (180°)5.8 mphMostly Cloudy
10:20 PM33.8 °F33.8 °F100 %29.00 in6.2 miSouth (180°)4.6 mphScattered Clouds
10:50 PM33.8 °F33.8 °F100 %29.00 in6.2 miSouth (170°)4.6 mphMostly Cloudy
11:20 PM33.8 °F33.8 °F100 %29.00 in6.2 miSSW (200°)5.8 mphMostly Cloudy
11:50 PM33.8 °F32.0 °F93 %29.00 in6.2 miSSW (210°)6.9 mphOvercast
Hourly data recorded from EETN, located miles away from Leetse, Estonia







STORIES FROM OUR PARTNERS